Aérodrome :
LOGIN :

S'inscrire | Disclaimer

   EN    FR    IT 

 










Légende :    VFR   VFR Marginal   IFR   IFR Intensif   IFR Très Intensif
Visi : 
Plafond : 
>= 8 km
>= 3000ft
5 à 8 km
1000 à 3000 ft
1500m à 5 km
500 à 1000 ft
800 à 1500m
200 à 500 ft
< 800m
< 200 ft
Symboles :   Orages  Brouillard  Fortes neiges  Fortes précipitations  Vent > 20 kt
SIGMETs :   Divers  Orages  Givrage  Turbulence  Onde Orograph.  Cendres Volcan.







- Altitude de l'aérodrome : 36 ft
- Code IATA : LTQ
- Voir les cartes d'approche


LFAT - Le Touquet

DERNIER METAR :
  • 250430Z AUTO 28009KT 240V310 9999 BKN019 10/08 Q1012

METARs EXPIRÉS :
  • 250400Z AUTO 27010KT 240V300 9999 FEW010 BKN027 10/09 Q1011
  • 250330Z AUTO 27010KT 240V310 9999 BKN006 OVC035 10/10 Q1011
  • 250300Z AUTO 27010KT 240V310 9999 OVC005 11/10 Q1011
  • 250230Z AUTO 26011KT 230V290 8000 3600 OVC003 11/10 Q1011
  • 250200Z AUTO 25012KT 210V280 4000 -DZ BR OVC003 11/11 Q1011

Prévision TAF périmée.
ATIS : +33 3 21 06 62 84
Pas de NOTAMs connus pour ce terrain.



MET'MAP, la Météo Aéronautique d'un coup d'oeil ! - Copyright ORBIFLY Décembre 2007 - Disclaimer

ORBIFLY MET'MAP TEAM :

Programmation & Développement : Alexandra Zaïnal
Conception & Développement : Baudouin d'Aumeries
Co-Programmation & Développement : Marc-Olivier Méhu
Soutien technique & logistique : Manuel Goepfert

Contact : metmap@orbifly.com




SOURCES & CREDITS :

   NOAA